Location: Montreal
(45.5000°N, 73.5833°W)
Time: 23:15:37
(UTC-05:00)

Vanguard 1 - Pass Details

Date: 18 October 2017
Orbit: 650 x 3834 km, 34.2° (Epoch: 17 November)

Event Time Altitude Azimuth Distance (km) Brightness Sun altitude
Rises 05:06:29 0° 267° (W) 6,651 - -23.2°
Reaches altitude 10° 05:10:26 10° 263° (W) 5,961 - -22.5°
Exits shadow 05:16:15 26° 256° (WSW) 5,092 13.0 -21.5°
Maximum altitude 05:30:15 58° 192° (SSW) 4,194 13.0 -19.0°
Drops below altitude 10° 05:52:07 10° 121° (ESE) 6,479 15.1 -15.2°
Sets 05:56:40 0° 118° (ESE) 7,229 15.6 -14.4°
